Other Surface Observations
Issued by NWS

Home | Current Version | Previous Version | Text Only | Print | Product List | Glossary On
Versions: 1 2 3 4 5 6 7 8 9 10 11 12 13 14 15 16 17 18 19 20 21 22 23 24 25 26 27 28 29 30 31 32 33 34 35 36 37 38 39 40 41 42 43 44 45 46 47 48 49 50
000
SXUS52 KTAE 272310
OSOTAE
OSOTAE
North Florida/South Alabama/Southwest Georgia Weather Roundup
National Weather Service Tallahassee Florida
700 PM EDT WED MAY 27 2015

Note: "fair" indicates few or no clouds below 12,000 feet with no
significant weather and/or obstructions to visibility.

!FLZ017-115-028-034-025-280000
...North Florida...

CITY           SKY/WX    TMP DP  RH WIND       PRES   REMARKS
TALLAHASSEE    CLOUDY    79  73  82 N3        30.12F THUNDER
APALACHICOLA   CLOUDY    84  72  67 SE8       30.11F
PERRY          TSTM     N/A N/A N/A N16G23    30.15R
CROSS CITY       N/A     89  62  40 E3        30.10F
JACKSONVILLE   PTSUNNY   79  65  62 E10       30.17R
$$

!FLZ112-006-005-002-011-280000
...Florida Panhandle...

CITY           SKY/WX    TMP DP  RH WIND       PRES   REMARKS
MARIANNA       CLOUDY    76  72  87 CALM      30.11F
BONIFAY        FAIR      76  71  85 CALM      30.13F
PANAMA CITY NW FAIR      78  69  73 NE5       30.11F
TYNDALL AFB    PTSUNNY   75  68  78 E5        30.11F
TYND DRONE APT FAIR      75  71  89 E7        30.11F
DE FUNIAK SPR  FAIR      72  70  95 MISG      30.13R
EGLIN AFB      PTSUNNY   83  74  75 S8        30.11S
DESTIN         PTSUNNY   83  75  77 S8        30.10F HX  90
HURLBURT       PTSUNNY   82  73  76 S9        30.10S
CRESTVIEW      CLOUDY    77  69  76 SE5       30.12F
PENSACOLA      PTSUNNY   79  69  71 S9        30.10F
$$

!ALZ063-066-280000
...South Alabama...

CITY           SKY/WX    TMP DP  RH WIND       PRES   REMARKS
DOTHAN         TSTM      70  68  93 SE8       30.17F FOG
OZARK CAIRNS   RAIN      71  69  92 E8        30.15R
FT RUCKER HELI CLOUDY    73  67  81 VRB5      30.14R THUNDER
RUCKER HELI 3  FAIR      75  67  76 E8G18     30.17R
RUCKER HELI 2  TSTM      70  70 100 SE13      30.14S
FLORALA APT    CLOUDY    74  69  85 SE5       30.15R
ANDALUSIA      CLOUDY    78  69  73 CALM      30.14R
TROY           CLOUDY    77  70  79 MISG      30.14R
EUFALA         FAIR      80  69  69 S13G22    30.13R THUNDER
MOBILE         LGT RAIN  73  71  93 N5        30.12S
$$

!GAZ120>161-280000
...Southwest and South Central Georgia...

CITY           SKY/WX    TMP DP  RH WIND       PRES   REMARKS
THOMASVILLE    FAIR      79  73  83 CALM      30.15F
BAINBRIDGE     TSTM      73  72  94 CALM      30.13F
MOODY AFB      LGT RAIN  81  66  61 N5        30.13S
VALDOSTA       CLOUDY    81  69  67 W3        30.13S
MOULTRIE       CLOUDY    77  73  88 W5        30.15F
BLAKELY        CLOUDY    73  70  88 SW5       30.14F
ALBANY         CLOUDY    82  67  60 SW7       30.15S
TIFTON         TSTM      72  69  91 CALM      30.15F
FITZGERALD     FAIR      84  65  52 E6        30.16F
CORDELE        FAIR      88  70  55 SE8       30.14S HX  93
AMERICUS       LGT RAIN  81  68  65 SW6       30.14S
HOMERVILLE     FAIR      86  64  48 SE5       30.15S
$$

!GMZ750-755-770-775-280000
...Coastal and Buoy Obs...

STATION/POSITION TIME  TEMP    WIND        PRES    VSBY  WAVE
                       AIR SEA DIR/SP/G                  HT/PER
                 (UTC) (F)     (DEG/KT/KT) (MB)    (MI)  (FT/S)
KEATON BEACH     2200   81     270/ 10/ 11 1020.6S
CEDAR KEY        2200   83     290/  8/ 10 1019.9F
C TOWER          2200   79     130/  9/ 10 1020.4S
APALACHICOLA BUO 2150   80 81  110/  8/ 10 1020.2          3/ 6
PANAMA CITY BUOY 2150   81 82  120/  8/  8 1019.9          4/ 6
MOBILE BUOY      2150   82 83  220/  2/  2 1020.1          3/ 6
ORANGE BCH AL BU 2150   81 81  150/  8/  8 1019.0          3/ 6
$$



USA.gov is the U.S. government's official web portal to all federal, state and local government web resources and services.